Terug naar catalogus

STARLINK-32041

ActiefCommunicatieVLEO
NORAD 60202·PAYLOAD·🇺🇸 United States

Gelanceerd Jul 3, 2024 vanaf Cape Canaveral Space Force Station

Loading…

Volgende Passages (komende 24 uur)

TLE

VersSource: CelesTrak SupGP

Epoch: Sep 15, 2026, 02:07 UTC

1 60202C 24124V   26258.08868056 -.00035695  00000+0 -11478-2 0  2587
2 60202  53.1569 161.4212 0001308  89.1200 225.4952 15.31720316    19

Volg STARLINK-32041 in realtime met AllMySat

Download on the App Store